www.pogodaiklimat.ru

Погода и климат >> Архив погоды >> Индия >> Naliya


ПОГОДА в Naliya

  • Прогноз погоды в Naliya
  • Монитор погоды в Naliya
  • Климат города

АРХИВ ПОГОДЫ в Naliya

Время (UTC), дата Ветер
(напр.,м/с)
 
Видим.   Явления Облачность Т
(С)
Тd
(С)
f
(%)
Тe
(С)
Тes
(С)
Комфортность P
(гПа)
Po
(гПа)
Тmin
(С)
Tmax
(С)
R
(мм)
R24
(мм)
S
(см)
18 19.06 ЮЗ 3 4000 м 8/5 600 м
[Sc As op]
+30.6 +25.2 73 +44 +44 опасность
перегрева
1000.5 1001.0
21 19.06 ЮЗ 4 4000 м 8/8 600 м
[Sc]
+30.4 +25.0 73 +44 +44 опасность
перегрева
999.4 999.0
00 20.06 ЮЗ 4 4000 м 8/8 600 м
[Sc As op]
+30.0 +25.2 76 +44 +44 опасность
перегрева
999.4 999.0
03 20.06 ЮЗ 5 4000 м 8/6 600 м
[Sc As op]
+31.2 +25.3 71 +45 +46 опасность
перегрева
1000.2 1000.0 +29.0
06 20.06 ЮЗ 4 4000 м 8/8 600 м
[Sc]
+32.4 +25.7 68 +48 +50 опасность
перегрева
1001.6 1002.0
09 20.06 ЮЗ 4 4000 м 8/8 600 м
[Sc As op]
+34.2 +24.6 57 +47 +49 опасность
перегрева
1000.4 1000.0
12 20.06 ЮЗ 5 4000 м 8/8 600 м
[Sc As op]
+32.4 +24.7 64 +45 +46 опасность
перегрева
998.8 999.0 +35.4
15 20.06 ЮЗ 3 4000 м 8/6 600 м
[Sc As op]
+31.0 +25.4 72 +45 +45 опасность
перегрева
999.4 999.0
18 20.06 ЮЗ 2 4000 м 8/6 600 м
[Sc As op]
+30.0 +26.1 80 +45 +45 опасность
перегрева
999.9 1000.0
21 20.06 ЮЗ 3 4000 м 8/6 600 м
[Sc As op]
+30.2 +26.0 78 +45 +45 опасность
перегрева
998.6 999.0
00 21.06 ЮЗ 3 4000 м 8/6 600 м
[Sc As op]
+30.0 +26.4 81 +46 +46 опасность
перегрева
998.6 999.0
03 21.06 ЮЗ 3 4000 м 8/6 600 м
[Sc As op]
+31.2 +25.9 73 +46 +47 опасность
перегрева
1001.0 1001.0 +29.2
06 21.06 ЮЗ 4 4000 м 6/6 600 м
[Sc]
+32.6 +24.7 63 +46 +51 опасность
перегрева
1001.2 1001.0
09 21.06 ЮЗ 5 4000 м 5/5 600 м
[Sc]
+34.0 +24.0 56 +46 +51 опасность
перегрева
1000.5 1001.0
12 21.06 ЮЗ 4 4000 м 5/5 600 м
[Sc]
+32.6 +24.7 63 +46 +47 опасность
перегрева
1000.4 1000.0 +35.4
15 21.06 ЮЗ 3 4000 м 6/6 600 м
[Sc]
+31.4 +25.5 71 +46 +46 опасность
перегрева
1000.4 1000.0
18 21.06 ЮЗ 3 4000 м 6/6 600 м
[Sc]
+31.0 +25.7 73 +46 +46 опасность
перегрева
1002.4 1002.0
21 21.06 ЮЗ 2 4000 м 6/6 600 м
[Sc]
+30.6 +26.1 77 +46 +46 опасность
перегрева
1000.9 1001.0
00 22.06 ЮЗ 3 4000 м 6/6 600 м
[Sc]
+30.4 +26.2 78 +46 +46 опасность
перегрева
1000.3 1000.0
03 22.06 ЮЗ 4 4000 м 5/5 600 м
[Sc]
+31.2 +25.6 72 +46 +48 опасность
перегрева
1001.2 1001.0 +29.6
06 22.06 ЮЗ 3 4000 м 5/5 600 м
[Sc]
+33.0 +24.5 61 +46 +54 опасность
перегрева
1002.4 1002.0
09 22.06 ЮЗ 4 4000 м 6/6 600 м
[Sc]
+34.0 +24.0 56 +46 +51 опасность
перегрева
1001.8 1002.0
12 22.06 ЮЗ 3 4000 м 6/6 600 м
[Sc]
+33.0 +24.8 62 +46 +48 опасность
перегрева
1000.4 1000.0 +35.6
15 22.06 ЮЗ 3 4000 м 6/6 600 м
[Sc]
+31.2 +25.0 70 +45 +45 опасность
перегрева
1001.2 1001.0
18 22.06 ЮЗ 3 4000 м 6/6 600 м
[Sc]
+30.2 +25.7 77 +45 +45 опасность
перегрева
1002.7 1003.0
21 22.06 ЮЗ 3 4000 м 6/6 600 м
[Sc]
+30.0 +25.2 76 +44 +44 опасность
перегрева
1001.2 1001.0
00 23.06 ЮЗ 2 4000 м 6/6 600 м
[Sc]
+29.8 +25.3 77 +44 +44 опасность
перегрева
1000.7 1001.0
03 23.06 ЮЗ 3 4000 м 8/8 600 м
[Sc As op]
+31.0 +25.4 72 +45 +46 опасность
перегрева
1002.8 1003.0 +29.2
06 23.06 ЮЗ 3 4000 м 6/6 600 м
[Sc]
+33.2 +24.1 59 +45 +52 опасность
перегрева
1003.4 1003.0
09 23.06 ЮЗ 3 4000 м 6/6 600 м
[Sc]
+33.4 +24.2 59 +46 +52 опасность
перегрева
1002.3 1002.0
12 23.06 З 3 4000 м 5/5 600 м
[Sc]
+32.4 +24.7 64 +45 +47 опасность
перегрева
1000.8 1001.0 +34.2
15 23.06 ЮЗ 3 4000 м 6/6 600 м
[Sc]
+31.0 +25.4 72 +45 +45 опасность
перегрева
1000.7 1001.0
18 23.06 ЮЗ 3 4000 м 6/6 600 м
[Sc]
+30.6 +24.6 70 +43 +43 опасность
перегрева
1002.2 1002.0
21 23.06 ЮЗ 3 4000 м 6/6 600 м
[Sc]
+30.4 +25.6 76 +45 +45 опасность
перегрева
999.8 1000.0
00 24.06 ЮЗ 3 4000 м 6/6 600 м
[Sc]
+30.0 +25.8 78 +45 +45 опасность
перегрева
999.8 1000.0
03 24.06 ЮЗ 3 4000 м 6/6 600 м
[Sc]
+31.2 +25.0 70 +45 +47 опасность
перегрева
1000.0 1000.0 +29.0
06 24.06 ЮЗ 3 4000 м 8/6 600 м
[Sc As op]
+32.0 +24.3 64 +44 +49 опасность
перегрева
1000.6 1001.0
09 24.06 ЮЗ 3 4000 м 6/5 600 м
[Sc As op]
+33.8 +24.1 57 +46 +52 опасность
перегрева
998.9 999.0
12 24.06 ЮЗ 3 4000 м 6/6 600 м
[Sc]
+33.2 +23.4 57 +44 +46 опасность
перегрева
997.3 997.0 +35.2
15 24.06 ЮЗ 2 4000 м 6/6 600 м
[Sc]
+31.2 +25.0 70 +45 +45 опасность
перегрева
998.4 998.0
18 24.06 ЮЗ 3 4000 м 6/6 600 м
[Sc]
+30.4 +25.7 76 +45 +45 опасность
перегрева
999.1 999.0
21 24.06 ЮЗ 3 4000 м 5/5 600 м
[Sc]
+30.0 +25.5 77 +44 +44 опасность
перегрева
997.1 997.0
00 25.06 ЮЗ 3 4000 м 6/6 600 м
[Sc]
+29.8 +25.0 75 +43 +43 опасность
перегрева
996.7 997.0
03 25.06 ЮЗ 2 4000 м 5/4 600 м
[Sc]
+30.6 +25.2 73 +44 +48 опасность
перегрева
997.8 998.0 +29.0
06 25.06 ЮЗ 2 4000 м 5/5 600 м
[Sc]
+33.8 +24.1 57 +46 +56 опасность
перегрева
998.2 998.0
09 25.06 штиль 0 4000 м 5/0 2000 м
[]
+36.4 +23.6 48 +47 +67 опасность
перегрева
997.4 997.0
12 25.06 ЮЗ 3 4000 м 5/0 2000 м
[]
+34.6 +23.8 54 +46 +49 опасность
перегрева
995.6 996.0 +37.4
15 25.06 ЮЗ 2 4000 м 5/0 2000 м
[]
+32.0 +24.9 66 +45 +45 опасность
перегрева
996.8 997.0
18 25.06 ЮЗ 4 4000 м слабый дождь {морось} 10/1 200 м
[Cb cap As op Ci fib]
+29.0 +25.9 83 +43 +43 опасность
перегрева
1003.0 1003.0 5
21 25.06 ЮЗ 2 4000 м слабая морось 4/1 200 м
[Cb cap As op Ci fib]
+25.4 +20.8 76 +32 +32 очень
душно
997.4 997.0 20
00 26.06 ЮЗ 2 4000 м 8/6 600 м
[Sc As op]
+25.2 +20.6 76 +31 +31 очень
душно
997.2 997.0 20
03 26.06 штиль 0 4000 м 6/5 600 м
[Sc As op]
+27.4 +22.1 73 +36 +39 очень
душно
999.2 999.0 +23.8 20
06 26.06 штиль 0 4000 м 5/5 600 м
[Sc]
+32.2 +24.8 65 +45 +59 опасность
перегрева
999.8 1000.0
09 26.06 штиль 0 4000 м 4/1 2000 м
[Sc Ac trans]
+35.2 +23.8 52 +47 +65 опасность
перегрева
998.0 998.0
12 26.06 штиль 0 4000 м 8/6 600 м
[Sc As op]
+33.4 +24.6 60 +46 +48 опасность
перегрева
996.4 996.0 +35.6
15 26.06 штиль 0 4000 м 4/0 2000 м
[]
+31.8 +25.0 67 +45 +45 опасность
перегрева
998.0 998.0

 

Местоположение метеостанции Naliya (Gujarat, Индия): широта 23.25 долгота 68.85 высота над уровнем моря 21 м.

В архиве по умолчанию представлена погода в Naliya за последнюю неделю. Архивные данные за месяц целиком и за предыдущие месяцы, начиная с января 2011 года, Вы можете получить, выбрав интересующий диапазон дат из раскрывающегося списка и нажав кнопку "Ввод!".

Внимание! Время в таблицах - всемирное. Для получения местного времени необходимо прибавить поправку, которая в Naliya равна 5.5 ч.

Смотрите также архив погоды в соседних городах и на ближайших метеорологических станциях:

Погода в Mandvi (Gujarat, Индия) (64 км)
Погода в Bhuj-Rudramata (Gujarat, Индия) (84 км)
Погода в Okha (Gujarat, Индия) (90 км)
Погода в Dwarka (Gujarat, Индия) (101 км)
Погода в Kandla (Gujarat, Индия) (129 км)
Погода в New Kandla (Gujarat, Индия) (143 км)
Погода в Badin (Пакистан) (154 км)
Погода в Porbandar (Gujarat, Индия) (197 км)
Погода в Rajkot (Gujarat, Индия) (224 км)
Погода в Hyderabad Airport (Пакистан) (241 км)

Пояснения к столбцам:

Ветер - указаны скорость ветра в м/с - средняя за 10 мин, порывы в срок и между сроками (в фигурных скобках) и направление, откуда дует ветер: С - северный, СВ - северо-восточный, В - восточный, ЮВ - юго-восточный, Ю - южный, ЮЗ - юго-западный, З - западный, СЗ - северо-западный.
Видимость - горизонтальная дальность видимости в метрах или километрах. При видимости от 1 до 10 км при отсутствии осадков обычно наблюдается дымка, при ухудшении видимости до 1 км и менее - туман. В сухую погоду видимость может ухудшаться дымом, пылью или мглою.
Явления - указаны атмосферные явления, наблюдавшиеся в срок или в последний час перед сроком; фигурными скобками обозначены явления, наблюдавшиеся между сроками (за 1-3 часа до срока); квадратными скобками обозначены град или гололедные отложения с указанием их диаметра в мм.
Облачность - указаны через наклонную черту общая и нижняя облачность в баллах и высота нижней границы облаков в метрах; квадратными скобками обозначены формы облаков: Ci - перистые, Cs - перисто-слоистые, Cc - перисто-кучевые, Ac - высококучевые, As - высокослоистые, Sc - слоисто-кучевые, Ns - слоисто-дождевые, Cu - кучевые, Cb - кучево-дождевые. Подробнее классификацию облаков см. в Атласе облаков (PDF).
T - Температура воздуха - температура, измеренная на высоте 2 м над землей.
Td - Температура точки росы - температура, при понижении до которой содержащийся в воздухе водяной пар достигнет насыщения.
f - Относительная влажность воздуха - влажноcть воздуха, измеренная на высоте 2 м над землей.
Te - Эффективная температура - температура, которую ощущает одетый по сезону человек в тени. Характеристика душности погоды. При расчете учитывается влияние влажности воздуха и скорости ветра на теплоощущения человека.
Tes - Эффективная температура на солнце - температура, которую ощущает человек, с поправкой на солнечный нагрев. Характеристика знойности погоды. Зависит от высоты солнца над горизонтом, облачности и скорости ветра. Ночью, в пасмурную погоду, а также при ветре 12 м/с и более поправка равна нулю.
P - Атмосферное давление - приведенное к уровню моря атмосферное давление.
Po - Атмосферное давление - измеренное на уровне метеостанции атмосферное давление.
Tmin - Минимальная температура - минимум температуры воздуха на высоте 2 м над землей.
Tmax - Максимальная температура - максимум температуры воздуха на высоте 2 м над землей.
R - Количество осадков - Количество выпавших осадков за период времени, мм. При наведении курсора мыши на число - период времени, за который выпало указанное количество осадков.
R24 - Количество осадков - Количество выпавших осадков за 24 часа, мм.
S - Снежный покров - Высота снежного покрова, см. При наведении курсора мыши на число - состояние снежного покрова и степень покрытия местности в баллах.